Wind_Speed
111 111 111 111 112 114 115 116 118 119 121 123 124 125 125 126 126 125 124 124 123 122 121 119 117 115 114 112 110 109 108 107 106 105 104 104 103 102 102 101 101 100 100 100 100 101 101 101 101 102 102 102 102 102 102 101 101 101 100 100 99 99 99 99 99 99 99 99 100 100 101 101 102 102 103 103 104 105 106 106 106 107 107 108 109 110
111 112 112 113 114 116 118 119 121 122 123 125 126 126 126 126 125 124 122 121 120 118 117 115 113 111 109 107 106 105 104 103 102 101 101 100 99 98 97 97 97 97 97 97 97 97 97 97 98 98 98 98 98 99 98 98 98 98 97 97 97 96 96 96 96 96 96 96 96 96 97 97 98 98 99 99 100 100 101 101 102 102 102 103 104 105
113 114 115 115 117 118 120 122 123 125 126 126 127 126 125 124 123 121 119 117 116 114 113 111 109 107 105 103 102 101 100 99 99 98 97 96 95 94 94 93 93 93 93 94 94 94 94 94 94 94 95 95 95 95 95 95 95 95 94 94 94 93 93 93 93 93 93 93 93 93 93 94 94 95 95 96 96 97 97 97 98 98 98 99 100 100
114 116 117 118 119 121 123 124 125 126 127 126 126 124 123 121 119 117 115 114 112 110 108 107 105 103 101 100 99 98 97 96 96 95 94 93 92 91 91 90 90 90 90 90 90 90 90 90 91 91 91 91 91 92 92 92 92 91 91 91 91 91 91 90 90 90 90 90 90 90 91 91 91 92 92 92 93 93 93 94 94 95 95 95 96 97
116 118 119 121 122 124 125 126 127 127 126 125 123 121 119 117 115 113 111 109 108 106 104 103 101 99 98 96 95 94 94 94 93 92 91 89 89 88 88 88 88 87 87 87 87 87 87 87 87 87 87 88 88 88 88 88 88 88 88 88 88 88 88 88 88 88 87 87 87 87 88 88 88 89 89 89 90 90 90 91 91 91 92 92 93 94
119 120 121 123 125 126 127 127 127 126 124 122 120 117 115 113 111 109 107 106 104 102 101 99 98 96 95 93 92 92 91 91 90 89 88 87 86 85 85 85 85 84 84 83 83 83 83 83 83 84 84 84 84 84 84 84 85 85 85 85 85 85 85 85 85 85 85 85 85 85 85 85 85 86 86 86 87 87 87 88 88 88 89 90 90 91
122 123 124 125 126 127 127 126 125 123 121 118 116 113 111 109 107 105 103 102 100 99 97 96 95 93 92 91 90 89 89 88 87 86 85 84 83 83 83 82 82 81 81 80 80 80 80 80 80 80 80 80 80 81 81 81 81 81 81 82 82 82 82 82 82 82 82 82 82 82 82 83 83 83 83 84 84 84 85 85 85 86 86 87 87 88
124 125 126 127 127 127 126 124 122 119 116 114 111 109 107 105 103 101 100 98 97 96 94 93 92 90 89 88 87 87 86 85 84 83 82 81 81 81 80 80 79 78 78 77 77 77 77 77 77 77 77 77 77 77 78 78 78 78 78 78 79 79 79 79 79 79 79 80 80 80 80 80 80 80 80 81 81 82 82 82 83 83 84 84 85 86
126 127 128 127 127 125 124 121 118 115 112 109 107 105 103 101 100 98 97 96 95 93 92 90 89 88 86 86 85 84 84 83 81 80 79 79 78 78 78 77 77 76 75 75 74 74 74 74 74 74 74 74 74 74 74 75 75 75 75 75 76 76 76 76 76 76 77 77 77 77 77 77 77 78 78 78 78 79 79 80 80 80 81 82 82 83
127 127 127 126 124 122 119 117 114 111 108 106 104 101 100 98 96 95 94 93 92 91 89 88 86 85 84 83 83 82 81 80 79 78 77 76 76 76 75 75 74 73 73 72 72 72 71 71 71 71 71 71 71 71 72 72 72 72 72 73 73 73 73 73 74 74 74 74 74 75 75 75 75 75 75 76 76 76 77 77 78 78 79 79 80 80
127 126 125 123 120 117 114 112 109 107 104 102 100 98 97 95 93 91 90 90 89 88 87 85 84 82 81 81 81 80 79 78 77 75 74 74 73 73 73 72 72 71 70 70 69 69 69 69 69 68 68 68 69 69 69 69 69 69 70 70 70 70 70 71 71 71 72 72 72 72 72 72 73 73 73 73 74 74 74 75 75 76 76 77 77 78
125 123 121 119 116 113 110 107 105 103 101 99 97 96 94 92 90 88 87 86 86 85 84 83 82 80 79 79 78 78 77 76 75 73 72 71 70 70 70 70 69 68 67 67 67 66 66 66 66 66 66 66 66 66 66 67 67 67 67 67 67 67 68 68 68 69 69 69 70 70 70 70 70 71 71 71 72 72 72 73 73 74 74 75 75 76
122 119 116 114 111 108 106 104 102 100 98 96 94 93 91 89 87 86 85 84 83 82 81 80 80 78 77 77 76 76 76 75 73 71 70 69 68 68 68 68 67 66 65 65 64 64 64 64 64 64 64 64 64 64 64 64 64 64 64 65 65 65 65 66 66 66 67 67 67 67 68 68 68 68 69 69 69 70 70 71 71 72 72 73 73 74
117 114 112 109 107 104 102 100 98 97 95 93 92 90 88 86 84 83 82 81 81 80 79 78 77 77 76 75 74 74 73 73 71 70 68 66 66 65 66 66 65 64 63 62 62 62 61 61 61 61 61 61 61 62 62 62 62 62 62 62 62 63 63 63 64 64 64 64 65 65 65 66 66 66 67 67 67 68 68 69 69 70 70 71 72 72
112 110 107 105 103 101 99 97 95 94 92 90 89 87 85 83 82 81 80 79 78 78 77 76 76 75 74 73 72 72 71 71 70 68 66 64 63 63 63 64 64 63 61 60 60 60 59 59 59 59 59 59 59 59 59 59 59 59 59 60 60 61 61 61 62 62 62 62 63 63 63 63 64 64 65 65 65 66 66 67 67 68 69 69 70 71
108 106 103 101 100 98 96 94 93 91 89 88 86 84 83 81 80 79 78 77 76 76 75 74 74 73 72 71 70 69 69 68 67 66 64 62 61 61 61 61 61 61 60 59 58 58 58 57 57 57 57 56 56 56 56 56 56 57 57 57 58 58 59 59 59 60 60 60 60 61 61 61 62 62 63 63 63 64 64 65 65 66 67 68 68 69
104 102 100 98 97 95 94 92 90 88 87 85 84 82 80 79 78 77 76 75 74 74 73 72 72 71 70 70 69 67 66 66 65 64 62 61 59 58 58 59 59 58 58 57 56 56 56 56 55 55 55 54 54 54 53 53 54 54 54 55 56 56 57 57 57 57 58 58 58 58 59 59 59 60 60 61 61 62 62 63 64 64 65 66 67 67
101 99 98 96 94 93 91 90 88 86 84 83 82 80 79 77 76 75 74 74 73 72 71 70 70 69 68 67 67 66 65 64 63 62 61 59 57 56 56 56 56 56 55 54 54 54 54 54 54 53 53 53 52 51 51 51 51 51 52 52 53 53 54 54 55 55 55 56 56 56 56 57 57 58 58 59 59 60 60 61 62 62 63 64 65 66
99 97 95 94 92 91 89 87 86 84 83 81 80 79 77 76 75 74 73 72 71 70 69 68 67 67 66 65 65 64 63 62 61 60 59 57 55 54 54 53 53 53 52 52 51 51 51 52 52 52 51 51 50 50 49 49 49 49 50 50 50 51 51 52 52 52 53 53 54 54 54 55 55 55 56 57 57 58 58 59 60 60 61 62 63 64
97 95 93 91 90 88 87 85 84 82 81 79 78 77 76 75 74 72 71 70 69 68 67 66 65 64 63 62 62 61 61 60 59 59 57 56 54 52 51 51 51 51 50 49 49 49 49 49 50 49 49 49 48 48 48 47 47 47 48 48 48 49 49 49 49 50 50 51 51 52 52 53 53 54 54 55 55 56 56 57 58 58 59 60 61 61
94 92 91 89 87 86 84 83 82 80 79 78 77 76 75 73 72 71 69 68 67 66 64 63 62 61 60 59 59 59 58 58 57 57 56 54 52 51 49 49 49 48 48 47 47 47 47 47 47 47 47 46 46 46 46 46 46 46 46 46 46 46 47 47 47 47 48 48 49 50 50 51 51 52 52 53 53 54 54 55 56 56 57 58 59 59
92 90 88 87 85 83 82 81 80 79 78 77 75 74 73 72 70 69 67 66 65 63 62 61 60 58 57 56 56 56 56 55 55 55 54 52 50 49 48 47 47 46 46 45 45 45 45 45 45 45 44 44 44 44 43 44 44 44 44 44 45 45 45 45 45 45 46 46 47 48 48 49 50 50 51 51 52 52 53 53 54 55 55 56 57 57
89 87 86 84 83 81 80 79 78 77 76 75 74 72 71 69 68 67 65 64 63 62 60 59 58 56 55 54 53 53 53 53 53 52 52 50 49 48 47 46 45 45 44 43 43 43 43 44 43 43 42 42 41 41 41 41 42 42 43 43 43 43 43 43 43 44 44 45 45 46 47 47 48 48 49 50 50 51 51 52 52 53 54 54 55 56
87 85 84 82 81 80 79 78 77 75 74 73 72 70 69 67 65 64 63 62 61 60 59 57 56 54 52 51 50 50 50 50 51 50 50 48 47 46 45 45 44 43 42 41 41 41 42 42 41 41 40 40 39 39 39 39 39 40 41 41 41 41 41 41 42 42 43 43 44 44 45 46 46 47 48 48 49 49 50 50 51 51 52 53 53 54
84 83 82 80 79 78 77 76 75 74 72 71 70 68 67 65 63 62 61 59 59 58 57 55 54 52 51 49 48 47 47 48 48 48 47 46 45 44 44 43 43 42 41 40 39 40 40 40 40 39 38 37 37 37 37 37 38 38 39 39 39 40 40 40 40 41 41 42 42 43 43 44 45 45 46 47 47 48 48 49 49 50 50 51 52 52
82 81 80 79 78 76 75 74 72 71 70 69 67 66 64 63 61 60 58 57 56 56 55 54 53 51 49 47 45 45 45 46 46 46 45 45 44 43 42 42 41 40 39 38 38 38 38 39 38 37 36 36 35 35 35 35 36 36 37 37 38 38 38 39 39 39 40 40 41 41 42 42 43 43 44 45 46 46 47 47 48 48 49 49 50 50
80 79 78 77 76 75 73 72 70 69 67 66 64 63 62 60 59 58 57 56 55 54 53 52 51 50 48 46 44 43 43 44 45 45 44 43 42 41 41 40 40 39 38 37 37 37 37 37 37 36 35 34 34 34 34 34 34 35 35 36 36 37 37 37 38 38 39 39 39 40 40 41 41 42 43 44 44 45 45 46 46 47 47 48 48 49
79 77 76 75 74 72 71 69 68 66 64 63 62 60 59 58 56 55 55 54 53 52 51 51 50 49 47 45 43 42 42 42 43 43 43 42 41 40 39 39 38 38 37 36 35 35 36 36 36 35 34 33 33 32 32 32 33 33 34 34 35 35 35 36 36 37 37 38 38 39 39 40 40 41 41 42 43 43 44 44 44 45 45 46 47 47
77 75 74 73 71 70 68 67 65 63 62 60 59 58 56 55 54 53 52 52 51 50 50 49 48 47 46 44 43 41 41 41 42 42 41 40 39 38 38 37 37 37 36 35 34 34 34 34 34 34 33 32 31 31 31 31 31 32 32 33 33 34 34 34 35 35 36 36 37 37 38 38 39 40 40 41 41 41 42 42 43 43 44 44 45 45
75 73 72 70 69 67 66 64 62 61 59 58 56 55 54 52 51 50 50 50 49 49 48 48 47 46 45 43 42 41 40 40 40 40 40 39 38 37 36 36 35 35 35 35 34 33 32 32 32 32 31 31 30 30 30 30 30 31 31 31 32 32 32 33 33 34 34 35 35 36 37 37 38 38 38 39 39 40 40 41 41 42 42 43 44 44
73 71 69 68 66 64 63 61 60 58 57 55 54 52 51 50 49 48 48 47 47 47 46 46 46 45 43 42 41 41 40 40 39 39 38 38 37 36 35 35 34 34 33 33 33 32 32 31 31 30 30 29 29 28 29 29 29 29 30 30 31 31 31 32 32 33 33 34 34 35 35 36 36 36 37 37 38 38 38 39 40 40 41 41 42 42
71 69 67 65 63 62 60 59 57 56 54 53 51 50 49 47 47 46 46 45 45 45 45 45 44 43 42 41 40 39 39 39 39 38 37 37 36 35 34 34 33 32 32 32 32 32 31 30 30 29 28 28 27 27 27 28 28 29 29 29 30 30 30 31 31 32 32 33 33 33 34 34 34 35 35 35 36 36 37 37 38 39 39 40 40 40
68 66 64 63 61 59 58 56 55 53 52 50 49 48 46 45 45 44 44 44 43 43 43 43 43 42 41 40 38 37 37 37 37 37 36 36 35 35 34 33 33 32 31 30 30 30 29 29 28 28 27 27 27 26 26 27 27 28 28 29 29 29 29 30 30 30 31 31 32 32 32 32 33 33 33 34 34 35 35 36 37 37 38 38 38 39
65 64 62 60 58 57 55 54 53 51 50 48 47 45 44 43 43 42 42 42 42 42 42 41 41 41 40 39 37 36 36 36 36 36 35 35 35 34 33 33 32 31 30 29 28 28 27 27 27 27 27 26 26 26 26 26 26 27 27 28 28 28 29 29 29 29 30 30 30 30 30 31 31 31 32 32 33 34 34 35 35 36 36 37 37 37
63 61 59 58 56 55 53 52 50 49 48 46 45 44 43 42 41 41 41 40 40 40 40 40 40 39 39 38 37 36 35 35 35 34 34 34 34 33 33 32 32 31 30 29 28 27 26 26 26 26 26 26 26 26 25 25 26 26 26 27 27 27 28 28 28 28 28 28 28 29 29 29 29 30 30 31 31 32 32 33 33 34 34 35 35 35
60 59 57 56 54 53 51 50 48 47 45 44 43 42 41 40 40 39 39 39 39 39 39 38 38 38 37 36 36 35 35 35 34 34 33 33 33 33 32 32 31 30 30 28 27 26 25 25 25 25 26 26 26 25 25 25 25 25 26 26 26 27 27 27 27 27 27 27 27 27 27 27 28 28 29 29 30 30 31 31 31 32 32 33 33 34
58 56 55 54 52 51 50 48 47 45 44 42 41 40 39 38 38 38 38 38 38 37 37 37 37 36 36 35 34 34 34 34 33 33 33 32 32 32 31 31 31 30 29 28 27 25 25 25 25 25 25 25 25 25 25 25 25 25 26 26 26 26 26 26 26 26 26 26 26 26 26 26 26 27 27 28 28 28 29 29 29 30 30 30 31 31
55 54 53 51 50 49 48 46 45 44 42 41 40 39 38 37 36 36 36 36 36 36 36 35 35 35 34 33 33 33 33 33 32 32 32 31 31 31 31 30 30 29 28 28 26 25 24 24 24 24 25 25 25 25 25 25 25 25 25 25 25 25 25 25 25 24 24 24 24 24 24 25 25 25 26 26 26 27 27 27 27 28 28 28 29 29
53 52 50 49 48 47 46 45 44 42 41 40 39 38 37 36 35 35 35 35 35 35 34 34 34 33 33 32 32 31 31 31 31 31 31 30 30 30 30 29 29 28 27 26 25 25 24 24 24 24 24 24 24 24 25 25 25 25 25 25 24 24 24 23 23 23 23 23 23 23 23 23 24 24 24 25 25 25 25 25 26 26 26 26 27 27
51 49 48 47 46 45 44 43 42 41 40 39 38 37 36 35 34 33 33 33 33 33 33 33 32 32 31 31 31 30 30 30 30 30 30 29 29 29 28 28 28 27 26 25 24 24 23 23 23 23 23 23 23 24 24 24 25 24 24 24 23 23 22 22 22 22 22 22 22 22 22 22 23 23 23 23 24 24 24 24 24 24 24 25 25 25
48 47 46 45 45 44 43 42 41 40 39 38 37 36 35 34 33 32 31 31 31 31 32 32 31 31 30 30 29 29 29 29 29 29 28 28 28 27 27 27 26 26 25 24 23 23 22 22 22 22 22 23 23 23 23 24 24 23 23 23 22 22 21 21 21 21 21 21 21 21 21 21 21 22 22 22 22 22 22 22 22 23 23 23 23 23
46 45 44 43 43 42 42 41 40 39 39 37 36 35 34 33 32 31 30 30 30 30 30 30 29 29 28 28 28 28 28 28 28 28 27 27 27 26 26 25 25 25 24 23 22 22 22 21 21 21 22 22 22 22 22 22 22 22 21 21 20 20 20 19 19 19 19 19 19 20 20 20 20 20 21 21 21 21 21 21 21 21 21 21 21 21
44 43 42 42 41 40 40 39 39 38 37 36 35 34 33 32 31 30 29 29 29 29 29 29 28 28 27 26 26 26 27 27 27 26 26 26 25 25 25 24 24 23 23 22 21 21 21 20 20 20 20 21 21 21 21 21 21 20 20 19 18 18 18 18 18 18 18 18 18 19 19 19 19 19 19 19 19 19 19 19 19 19 19 19 19 19
42 41 41 40 39 39 38 38 37 37 36 35 34 33 32 31 30 29 29 28 28 28 28 28 27 27 26 25 25 25 25 26 26 25 25 25 24 24 23 23 22 22 22 21 21 20 20 19 19 19 19 19 20 20 20 20 19 19 18 17 17 16 16 16 16 17 17 17 18 18 18 18 18 18 18 18 18 18 18 17 17 17 17 17 17 17
41 40 39 38 38 37 36 36 35 35 34 34 33 32 31 30 29 29 28 28 27 27 27 27 27 26 25 24 24 24 24 24 24 24 24 24 23 23 22 22 21 21 20 20 20 19 19 19 18 18 18 19 19 19 18 18 18 17 16 16 15 15 15 15 15 16 16 16 17 17 17 17 17 17 17 17 16 16 16 15 15 15 15 15 15 15
40 39 38 37 36 35 35 34 34 33 33 32 32 31 30 29 29 28 27 27 27 27 27 27 26 25 24 24 23 23 23 23 23 23 23 23 22 22 21 21 20 20 19 19 19 18 18 18 17 17 17 18 18 17 17 17 16 16 15 14 14 14 14 14 15 15 15 16 16 16 16 16 16 16 16 15 15 14 14 13 13 13 13 13 13 13
40 39 37 36 35 34 34 33 32 31 31 30 30 30 29 29 28 27 27 27 26 26 26 26 26 25 24 23 23 22 22 22 22 22 22 22 21 21 20 20 19 19 18 18 18 17 17 16 16 16 16 16 16 16 16 15 15 14 14 13 13 13 13 13 14 14 14 15 15 15 15 15 15 15 14 13 13 12 12 12 12 12 11 11 11 11
39 38 37 36 35 34 33 32 31 30 29 29 29 28 28 28 28 27 26 26 26 26 26 26 26 25 24 23 23 22 22 22 22 21 21 21 21 20 19 19 18 18 17 17 17 16 16 15 15 15 15 15 15 15 14 14 13 13 13 12 12 12 12 12 13 13 13 14 14 14 14 14 14 13 13 12 12 11 11 11 11 10 10 9 9 9
38 37 36 35 34 33 32 31 30 29 28 28 27 27 27 27 27 27 26 26 26 26 26 26 25 25 24 23 22 22 22 21 21 21 21 20 20 19 19 18 17 17 17 16 16 15 15 15 14 14 14 14 14 13 13 13 12 12 12 12 11 11 11 12 12 12 13 13 13 13 13 13 13 12 11 11 11 11 10 10 10 9 9 8 7 7
38 37 36 35 34 32 31 30 29 28 28 27 27 26 26 26 26 26 26 26 26 26 26 25 25 24 23 23 22 22 21 21 21 20 20 20 19 19 18 17 17 16 16 16 15 15 14 14 13 13 13 13 13 12 12 11 11 11 11 11 11 11 11 11 11 11 12 12 12 12 12 12 11 11 10 10 10 10 10 10 9 8 7 7 6 6
36 36 35 34 33 32 31 30 29 28 28 27 27 26 26 26 26 26 26 26 26 26 26 25 25 24 23 22 22 21 21 21 20 20 19 19 19 18 17 17 16 16 16 15 15 14 13 13 12 12 12 12 12 11 11 10 10 10 10 10 10 10 10 10 11 11 11 11 11 11 11 11 10 10 10 10 9 9 9 9 8 7 6 5 5 4
Wind_Direction
299 299 299 299 300 300 300 300 300 300 299 299 299 298 298 297 297 296 296 295 294 294 293 292 292 291 291 291 290 290 289 288 288 287 286 285 285 284 284 283 283 282 282 281 280 280 279 278 278 278 277 277 276 276 276 275 275 274 273 273 272 271 271 270 269 269 268 267 267 266 265 265 264 264 263 263 262 262 261 261 260 260 259 259 258 258
300 300 300 300 300 301 301 300 300 300 300 299 299 298 298 297 297 296 296 295 295 294 293 293 292 292 292 291 291 290 290 289 288 287 286 286 285 285 285 284 283 282 282 281 280 280 279 278 278 278 277 277 276 276 275 275 275 274 273 273 272 271 271 270 269 268 268 267 266 266 265 265 264 264 263 262 262 261 261 261 260 260 259 259 258 258
300 301 301 301 301 301 301 301 301 300 300 300 299 299 298 298 297 297 296 295 295 294 293 293 293 293 292 292 291 291 290 289 288 288 287 286 286 286 285 284 283 282 281 281 280 280 279 279 278 278 277 277 276 276 275 275 275 274 273 273 272 271 271 270 269 268 268 267 266 265 265 264 264 263 263 262 262 261 261 260 260 259 259 258 258 257
301 302 302 302 302 302 302 301 301 301 300 300 299 299 299 298 298 297 296 296 295 294 294 294 293 293 293 292 292 291 290 289 289 288 287 287 287 286 285 284 283 282 282 281 280 280 279 279 278 278 277 277 276 276 275 275 274 274 273 273 272 271 271 270 269 268 268 267 266 265 265 264 263 263 262 262 261 261 260 260 260 259 258 258 257 257
302 303 303 303 303 303 302 302 301 301 301 300 300 299 299 298 298 297 296 296 295 295 295 294 294 294 293 293 292 292 291 290 289 289 288 288 287 286 285 284 283 283 282 282 281 280 280 279 278 278 277 276 276 275 275 275 274 274 273 272 272 271 271 270 269 268 268 267 266 265 265 264 263 263 262 262 261 261 260 260 259 259 258 258 257 256
303 304 304 304 303 303 303 302 302 301 301 300 300 299 299 298 298 297 297 296 296 296 295 295 295 294 294 293 293 292 291 290 290 289 289 288 288 287 286 285 284 283 283 282 281 281 280 279 278 278 277 276 276 275 275 274 274 273 273 272 271 271 270 270 269 268 267 267 266 265 264 264 263 263 262 262 261 260 260 259 259 258 258 257 257 256
304 305 304 304 304 303 303 302 302 301 301 301 300 300 299 298 298 298 297 297 296 296 296 295 295 295 294 294 293 292 291 291 290 290 290 289 288 287 286 286 285 284 284 283 282 281 280 279 279 278 277 277 276 275 275 274 273 273 272 271 271 270 270 269 268 268 267 266 266 265 264 264 263 263 262 261 261 260 260 259 259 258 258 257 256 256
305 305 305 305 304 304 303 302 302 301 301 301 300 300 299 299 298 298 298 297 297 297 296 296 295 295 295 294 293 293 292 291 291 291 290 290 289 288 287 287 286 285 284 283 283 282 281 280 279 279 278 277 276 276 275 274 273 273 272 271 271 270 269 269 268 268 267 266 266 265 264 264 263 262 262 261 261 260 259 259 258 258 257 257 256 256
306 306 305 305 304 304 303 303 302 302 301 301 301 300 300 299 299 299 299 298 298 297 297 296 296 296 295 294 294 293 292 292 292 291 291 290 290 289 288 287 287 286 285 284 283 283 282 281 280 279 278 278 277 276 275 274 273 273 272 271 271 270 269 269 268 267 267 266 265 265 264 264 263 262 262 261 260 260 259 259 258 257 257 256 256 255
306 306 305 305 304 304 303 303 302 302 301 301 301 300 300 300 300 299 299 299 298 297 297 297 296 296 295 295 294 294 293 292 292 292 291 291 290 289 289 288 287 286 286 285 284 283 282 281 281 280 279 278 277 276 275 274 274 273 272 271 271 270 269 269 268 267 267 266 265 265 264 263 263 262 261 261 260 260 259 258 258 257 257 256 255 255
306 306 305 305 304 304 303 303 302 302 302 301 301 301 300 300 300 300 300 299 298 298 297 297 297 296 296 295 295 294 293 293 292 292 292 291 291 290 289 288 288 287 286 286 285 284 283 282 281 280 279 278 277 276 275 275 274 273 272 272 271 270 269 269 268 267 267 266 265 265 264 263 263 262 261 261 260 259 259 258 258 257 257 256 255 255
306 306 305 305 304 304 303 303 303 302 302 302 301 301 301 301 301 300 300 299 299 298 298 298 297 297 296 296 295 295 294 293 293 293 292 292 291 290 290 289 288 287 287 286 285 284 283 283 282 281 280 279 278 277 276 275 274 273 273 272 271 270 270 269 268 267 267 266 265 264 264 263 263 262 261 261 260 259 259 258 258 257 257 256 255 255
306 306 305 305 304 304 304 303 303 303 302 302 302 301 301 301 301 301 300 299 299 299 298 298 298 297 297 296 296 295 295 294 294 293 293 292 292 291 290 289 288 288 287 286 285 284 284 283 282 281 280 279 278 277 276 276 275 274 273 272 271 270 270 269 268 267 266 266 265 264 264 263 262 262 261 261 260 259 259 258 258 257 256 256 255 255
306 306 305 305 304 304 304 303 303 303 303 302 302 302 302 302 301 301 300 300 299 299 299 298 298 298 297 297 296 296 295 295 294 294 293 293 293 292 291 290 289 288 288 287 286 285 284 283 282 281 280 279 278 278 277 276 275 274 274 272 271 270 270 269 268 267 266 266 265 264 264 263 262 262 261 260 260 259 259 258 257 257 256 256 255 255
306 306 305 305 305 304 304 304 303 303 303 303 302 302 302 302 302 301 301 300 300 300 299 299 298 298 298 297 297 296 296 295 295 295 294 294 293 292 292 291 290 289 289 288 287 286 285 284 282 281 280 279 278 278 277 277 276 275 274 273 272 271 270 269 268 267 266 266 265 264 263 263 262 262 261 260 260 259 258 258 257 257 256 256 255 255
307 306 306 305 305 305 304 304 304 303 303 303 303 303 303 302 302 302 301 301 300 300 300 300 299 299 298 297 297 296 296 296 295 295 295 294 294 293 292 291 291 290 290 289 288 287 286 284 283 282 281 280 279 278 277 276 276 275 274 273 272 271 270 269 268 268 267 266 265 264 264 263 262 261 261 260 259 259 258 258 257 256 256 255 255 254
307 306 306 306 306 305 305 304 304 304 304 304 303 303 303 303 302 302 302 301 301 301 300 300 299 299 298 298 297 297 296 296 296 295 295 294 294 293 292 292 291 291 290 290 289 288 286 285 284 283 282 281 279 278 278 277 276 275 274 273 272 272 271 270 269 268 267 266 265 265 264 263 262 261 261 260 259 259 258 257 257 256 255 255 254 254
307 307 307 306 306 306 305 305 305 305 304 304 304 304 303 303 303 302 302 302 301 301 301 300 300 299 299 298 298 297 297 296 296 296 295 295 294 294 293 292 291 291 291 290 289 288 287 286 285 284 283 282 281 280 279 277 276 275 274 273 272 272 271 270 270 269 268 267 266 265 264 263 262 261 261 260 259 258 257 257 256 255 255 254 254 253
308 307 307 307 306 306 306 306 305 305 305 305 304 304 304 303 303 303 302 302 301 301 301 300 300 299 299 299 298 298 298 297 297 296 296 295 295 294 293 293 292 291 291 290 290 289 288 287 286 285 284 284 283 282 280 279 277 276 275 274 273 272 271 271 270 269 268 268 267 266 265 264 263 262 260 260 259 258 257 256 256 255 255 254 254 253
308 308 307 307 307 307 306 306 306 305 305 305 305 304 304 304 303 303 302 302 301 301 300 300 299 299 299 299 299 298 298 297 297 296 296 296 295 295 294 294 293 292 291 291 290 289 288 287 287 286 285 285 284 283 282 280 279 277 276 275 273 272 272 271 270 269 269 268 267 266 265 264 263 262 261 260 259 258 257 256 256 255 254 254 253 253
309 308 308 307 307 307 307 306 306 306 305 305 305 304 304 304 303 303 302 302 301 301 300 300 299 299 299 299 299 298 298 298 297 297 296 296 296 296 295 295 294 293 292 292 291 290 289 288 287 286 286 285 285 284 283 282 281 279 278 276 275 273 272 271 270 269 268 268 267 266 265 264 263 262 261 260 259 258 257 257 256 255 254 254 253 253
309 308 308 308 307 307 307 306 306 306 305 305 305 304 304 304 303 303 302 302 301 301 300 299 299 299 299 299 299 299 298 298 298 297 297 297 297 297 296 296 295 294 293 292 292 291 289 288 287 287 286 286 285 284 284 283 282 280 279 278 276 275 273 272 271 269 268 267 266 266 265 264 263 263 262 261 260 259 258 257 256 255 255 254 253 253
309 308 308 308 307 307 307 306 306 306 305 305 304 304 304 303 303 303 302 302 301 301 300 300 299 299 299 299 299 299 299 298 298 298 298 298 298 298 297 296 296 295 294 293 293 292 290 289 288 288 287 287 286 285 284 283 282 281 280 278 277 276 274 273 271 270 269 267 266 266 265 264 263 263 262 261 261 260 259 258 257 256 255 255 254 253
309 308 308 308 307 307 306 306 306 305 305 305 304 304 304 303 303 303 302 302 301 301 300 300 300 300 299 299 299 299 298 298 298 298 298 298 298 298 298 297 296 295 295 294 294 293 291 290 290 289 288 288 287 286 285 283 282 281 280 279 278 276 275 273 272 271 269 268 267 266 265 264 264 263 262 262 261 260 260 259 258 257 256 256 255 254
309 309 308 308 307 307 306 306 306 305 305 305 304 304 304 303 303 303 302 302 301 301 300 300 300 300 299 299 299 298 298 297 297 297 297 297 298 298 297 297 296 296 295 295 294 293 292 291 290 290 290 289 288 287 285 284 283 281 280 279 278 277 275 274 272 271 269 268 267 266 265 264 264 263 262 262 261 261 260 259 259 258 257 257 256 256
309 308 308 308 307 307 306 306 306 305 305 304 304 304 304 304 303 303 302 302 301 301 301 300 300 300 299 299 299 298 298 297 296 296 297 297 297 297 297 297 296 295 295 295 295 294 293 292 292 291 291 290 289 288 286 285 283 282 280 279 278 276 275 274 272 271 270 269 268 267 266 265 264 263 262 262 261 261 260 260 259 259 258 258 257 257
309 308 308 307 307 306 306 306 306 305 305 304 304 304 304 304 303 303 302 302 301 301 301 300 300 300 300 300 300 299 298 297 297 297 297 297 297 297 297 297 296 296 296 295 296 296 295 294 293 293 292 291 290 289 287 285 284 282 281 279 278 276 275 274 273 272 270 269 268 267 266 265 264 263 263 262 261 261 261 260 260 259 259 258 258 257
309 308 308 307 307 306 306 306 305 305 305 304 304 304 304 304 303 303 302 302 302 301 301 301 301 301 301 301 301 300 299 298 298 297 298 298 298 297 297 297 297 297 296 296 296 296 296 295 295 294 294 293 292 290 288 286 284 283 281 279 278 277 276 274 273 272 271 270 269 268 267 266 265 264 263 262 262 261 261 261 260 260 259 259 258 258
308 308 307 307 307 306 306 305 305 305 304 304 304 304 304 304 303 303 302 302 302 301 301 301 301 302 302 302 302 302 301 299 298 298 298 298 298 298 297 297 297 297 297 297 296 296 296 296 296 296 295 294 293 291 289 287 285 283 282 280 279 277 276 275 274 273 271 270 269 268 267 266 265 264 264 263 263 262 262 261 261 260 259 259 258 257
308 308 307 307 306 306 306 305 305 304 304 304 304 304 304 303 303 303 302 302 302 302 302 302 302 302 302 303 303 303 301 300 299 299 299 299 299 298 298 298 298 298 298 298 297 297 297 297 297 297 296 295 294 292 290 288 286 284 282 281 279 278 277 275 274 273 272 271 270 269 268 267 266 266 265 265 264 263 263 262 261 261 260 259 258 258
308 308 307 307 306 306 305 305 305 304 304 304 304 304 303 303 303 302 302 302 302 302 302 302 302 302 303 303 303 303 302 301 300 300 300 300 300 300 300 299 299 299 300 300 300 299 299 298 298 298 297 296 295 293 291 289 287 285 283 281 280 278 277 276 274 273 272 271 270 270 269 269 268 267 267 266 266 265 264 263 262 262 261 260 260 259
308 308 307 307 306 306 305 305 304 304 304 304 304 304 304 303 303 302 302 302 302 302 302 302 302 302 303 303 303 303 303 302 302 301 302 302 302 302 302 301 301 301 301 302 302 302 302 301 300 300 299 298 296 294 292 290 288 286 284 282 281 279 278 276 275 274 273 272 271 271 271 270 270 269 269 268 267 266 265 265 264 263 262 262 261 260
308 308 307 307 306 306 305 305 305 304 304 304 304 304 304 303 303 302 302 302 301 302 302 302 302 302 302 303 303 303 303 303 303 302 303 303 303 304 303 303 303 303 303 303 303 303 303 303 302 301 300 299 297 295 293 291 288 286 285 283 282 280 278 277 276 275 274 273 273 272 272 271 271 270 270 269 268 267 266 266 265 264 264 263 263 262
308 308 307 307 306 306 305 305 305 305 304 304 304 304 304 303 303 302 302 301 301 301 301 302 302 302 303 303 303 303 303 303 303 303 304 304 305 305 305 305 305 305 305 305 305 305 304 304 304 303 302 300 298 296 294 291 289 287 285 284 282 281 280 278 277 276 275 274 274 273 273 272 271 271 270 269 268 267 266 266 265 265 264 264 263 262
308 308 307 307 306 306 305 305 305 305 305 305 305 304 304 303 303 303 302 302 301 301 301 301 302 302 303 303 304 304 304 303 303 304 304 305 306 306 307 307 307 307 307 307 306 306 306 305 305 304 302 301 299 297 295 292 290 288 286 285 283 282 281 280 279 278 277 276 276 275 274 273 272 271 270 269 268 267 266 265 265 264 264 263 263 262
308 308 307 307 306 306 306 305 305 305 305 305 305 305 304 304 303 303 302 302 301 301 301 301 302 302 303 304 304 305 305 305 304 305 305 306 307 307 308 308 309 309 308 308 308 308 308 307 306 304 303 301 300 298 296 293 291 289 287 286 284 283 282 281 281 280 279 279 278 277 276 274 273 272 271 270 268 267 267 266 265 264 264 263 263 262
308 308 307 307 306 306 306 306 306 306 306 305 305 305 305 304 304 303 302 302 301 301 301 301 302 302 303 304 304 305 305 305 305 306 306 307 308 308 309 309 309 310 309 309 309 309 308 307 306 304 302 301 300 299 297 294 292 290 288 286 285 284 283 283 283 282 281 281 280 279 278 276 275 273 272 271 270 269 268 267 266 266 265 264 263 262
308 308 307 307 307 306 306 306 306 306 306 306 305 305 305 304 304 303 303 302 302 301 301 301 302 302 303 304 304 305 305 305 306 306 307 308 308 309 309 310 309 309 309 309 309 309 309 307 305 304 302 301 300 299 297 295 293 291 289 288 287 286 285 285 284 284 283 282 281 280 279 278 277 275 274 273 272 272 271 270 269 268 267 266 265 263
308 308 308 307 307 307 307 307 307 307 306 306 306 305 305 305 304 304 303 302 302 302 302 302 302 303 303 304 304 305 305 305 306 306 307 308 308 309 309 309 309 309 309 309 309 309 309 307 305 303 302 300 299 298 296 295 293 292 290 289 288 287 287 287 286 285 284 283 282 281 280 279 278 277 276 275 275 274 273 272 272 270 269 268 266 265
309 308 308 308 308 307 307 307 307 307 307 306 306 306 306 305 305 304 303 303 303 302 302 302 303 303 304 305 305 306 306 306 306 307 307 308 308 309 309 309 308 308 308 308 308 309 308 307 305 303 301 299 298 297 296 294 293 291 290 289 289 288 288 288 287 286 285 284 283 282 281 280 279 278 278 277 277 276 275 275 274 272 271 270 268 266
309 308 308 308 308 308 308 308 308 307 307 307 307 307 307 306 306 305 305 304 303 303 303 303 304 305 305 306 306 307 306 307 307 307 307 308 308 309 308 308 308 308 308 308 308 308 308 306 304 302 300 299 297 296 295 294 292 291 290 290 289 289 289 289 288 287 286 285 284 283 282 281 280 280 279 278 278 278 277 276 275 273 272 270 268 266
309 309 309 308 308 308 308 308 308 308 308 308 308 308 308 307 307 306 306 305 305 304 304 304 305 306 307 308 307 307 307 307 307 307 308 308 308 308 308 308 308 307 308 308 309 309 307 305 303 301 299 298 296 295 295 294 292 292 291 290 290 290 290 290 289 288 288 286 285 284 283 282 281 281 280 280 279 279 278 277 276 274 272 270 268 266
309 309 309 308 308 308 308 308 308 308 308 308 308 308 308 308 308 307 307 307 306 306 306 306 306 307 308 309 309 309 308 307 307 308 308 308 308 309 308 308 308 308 308 309 309 308 307 304 302 300 298 297 296 295 295 294 293 292 292 291 291 291 291 292 291 290 290 288 287 286 285 284 283 282 282 282 281 280 279 278 276 274 273 270 268 265
309 309 309 309 308 308 308 308 308 308 308 308 308 308 308 308 308 308 308 308 308 308 307 307 308 308 310 311 311 310 309 309 309 309 309 309 309 309 309 309 309 309 309 309 309 308 306 304 301 299 298 297 296 296 295 295 294 293 293 293 294 294 294 294 294 294 293 291 290 288 287 286 285 284 284 283 283 282 280 279 278 276 274 271 268 265
310 309 309 309 308 308 308 308 308 308 308 308 308 308 308 308 308 309 309 309 310 310 310 309 310 310 311 312 313 312 311 311 310 310 310 310 310 310 309 309 310 310 310 310 309 308 305 303 301 299 299 297 296 296 295 295 295 295 295 296 297 297 297 298 297 296 295 294 292 291 289 288 287 286 285 285 284 284 283 282 280 278 275 272 268 264
310 310 310 309 309 309 308 308 307 307 307 307 308 308 308 308 309 309 310 310 311 311 311 311 312 312 313 314 314 314 313 313 312 312 311 311 310 310 310 310 310 310 310 310 309 307 305 303 301 300 299 298 297 296 296 296 297 298 298 299 300 301 302 302 301 300 298 297 295 293 292 290 289 288 287 287 287 287 287 286 284 282 279 274 270 265
311 310 310 309 309 309 308 308 307 307 307 307 307 307 307 308 308 309 310 310 311 312 312 312 313 313 314 315 316 316 315 315 314 314 313 312 311 310 310 311 311 311 311 310 308 307 305 303 302 301 300 299 298 298 297 298 299 301 301 302 304 305 305 305 304 302 301 299 297 295 293 292 291 290 290 291 292 293 293 292 290 287 283 277 272 266
311 311 310 310 309 309 309 308 308 307 307 306 306 306 306 307 308 309 309 310 311 312 312 313 314 314 315 316 317 317 317 316 316 315 315 314 312 311 311 311 312 311 311 310 309 307 305 304 303 302 301 301 301 300 300 301 302 304 305 306 307 308 308 308 307 305 303 302 300 298 296 294 294 294 295 297 300 301 301 299 296 292 287 282 276 269
311 311 311 310 310 309 309 308 308 307 306 306 305 305 305 306 307 307 309 309 310 311 312 313 313 314 315 317 318 318 317 317 317 316 316 315 313 312 312 312 312 312 311 310 308 307 306 305 304 303 303 303 303 303 303 304 305 307 308 310 311 311 312 311 310 308 306 304 302 301 299 299 300 301 304 306 307 308 308 305 301 297 292 286 279 272
311 311 310 310 310 309 309 308 307 307 306 305 305 305 305 305 305 306 307 308 309 310 310 311 312 313 315 316 317 318 318 318 318 317 317 315 314 313 313 312 312 312 311 309 307 306 305 305 305 305 305 305 306 306 307 307 308 310 312 314 315 315 316 315 314 312 310 308 306 305 305 305 307 309 311 313 314 313 313 309 306 302 296 290 283 274
311 311 310 310 310 309 309 308 307 306 306 305 305 304 304 304 304 305 306 307 307 308 308 309 310 312 313 315 317 317 317 317 317 318 317 315 314 313 313 313 313 312 310 308 306 305 304 305 306 306 306 307 308 310 311 312 311 313 315 318 320 321 321 320 318 315 314 312 311 310 311 312 314 317 319 320 319 318 315 313 309 306 301 295 287 276
Height
10354 10349 10345 10342 10338 10333 10326 10320 10317 10313 10308 10301 10295 10289 10284 10280 10275 10270 10264 10260 10255 10248 10243 10238 10235 10232 10229 10226 10222 10218 10215 10212 10208 10204 10201 10197 10195 10193 10191 10189 10187 10184 10181 10178 10175 10173 10170 10168 10165 10163 10162 10160 10158 10157 10156 10155 10155 10155 10156 10157 10157 10158 10159 10160 10161 10162 10163 10164 10165 10166 10167 10168 10170 10171 10173 10175 10176 10178 10180 10182 10184 10187 10190 10193 10197 10199
10344 10340 10335 10332 10328 10324 10317 10310 10305 10300 10295 10290 10284 10277 10272 10267 10262 10257 10252 10247 10241 10235 10230 10227 10223 10220 10217 10214 10211 10207 10203 10200 10196 10192 10189 10187 10185 10183 10181 10178 10176 10173 10170 10167 10164 10162 10160 10157 10155 10153 10152 10150 10148 10147 10145 10145 10145 10145 10145 10145 10146 10147 10147 10148 10149 10150 10151 10152 10153 10154 10155 10157 10158 10159 10161 10163 10165 10166 10168 10170 10173 10175 10178 10181 10184 10187
10335 10331 10325 10320 10317 10313 10307 10300 10293 10288 10282 10277 10272 10265 10260 10254 10250 10245 10240 10234 10228 10223 10218 10215 10212 10210 10207 10203 10200 10197 10192 10188 10185 10181 10178 10177 10175 10173 10171 10168 10165 10162 10158 10156 10154 10152 10150 10148 10146 10144 10142 10140 10138 10137 10136 10135 10135 10134 10135 10135 10135 10135 10136 10137 10137 10138 10140 10140 10142 10143 10144 10145 10146 10148 10150 10151 10153 10155 10157 10159 10162 10164 10167 10169 10172 10175
10327 10322 10317 10310 10305 10301 10295 10289 10283 10277 10270 10264 10259 10253 10248 10242 10237 10232 10227 10222 10217 10212 10207 10204 10202 10198 10195 10192 10189 10185 10182 10177 10173 10170 10168 10167 10165 10163 10160 10157 10153 10151 10148 10147 10145 10143 10141 10139 10137 10135 10133 10131 10129 10128 10127 10126 10125 10125 10125 10125 10125 10125 10125 10126 10127 10128 10128 10130 10130 10132 10133 10134 10135 10137 10138 10140 10142 10143 10146 10148 10150 10153 10155 10158 10160 10163
10315 10312 10307 10302 10295 10288 10281 10276 10270 10264 10258 10252 10247 10242 10237 10231 10225 10220 10215 10211 10206 10201 10197 10194 10191 10188 10185 10182 10178 10175 10170 10166 10163 10160 10159 10158 10156 10153 10149 10146 10143 10142 10140 10138 10136 10134 10132 10130 10127 10125 10123 10122 10120 10119 10118 10117 10116 10116 10115 10115 10115 10115 10115 10116 10117 10117 10118 10119 10120 10122 10123 10124 10125 10127 10128 10130 10132 10133 10136 10138 10140 10142 10145 10147 10149 10152
10304 10300 10295 10291 10285 10277 10268 10262 10257 10252 10245 10240 10234 10230 10225 10220 10215 10209 10204 10200 10195 10192 10188 10184 10180 10177 10175 10172 10168 10164 10160 10156 10153 10152 10150 10148 10145 10142 10138 10136 10134 10133 10131 10129 10127 10125 10122 10120 10118 10117 10115 10113 10112 10110 10109 10108 10107 10107 10106 10106 10106 10106 10105 10106 10107 10107 10108 10109 10110 10112 10113 10115 10116 10117 10119 10121 10122 10124 10126 10128 10130 10132 10135 10137 10138 10140
10293 10288 10282 10277 10272 10265 10257 10250 10244 10239 10235 10228 10223 10218 10213 10209 10204 10199 10194 10190 10185 10182 10178 10174 10170 10167 10165 10162 10158 10154 10150 10147 10144 10143 10141 10138 10135 10132 10129 10127 10125 10123 10122 10120 10118 10115 10113 10112 10110 10108 10106 10105 10103 10102 10100 10100 10098 10098 10097 10097 10097 10097 10097 10097 10097 10098 10098 10100 10101 10102 10103 10105 10106 10108 10109 10111 10113 10114 10116 10118 10120 10122 10125 10126 10128 10130
10282 10277 10270 10263 10257 10251 10245 10237 10231 10226 10223 10218 10213 10207 10202 10198 10193 10189 10184 10180 10175 10172 10168 10165 10161 10158 10155 10152 10148 10145 10140 10138 10135 10134 10132 10129 10125 10122 10120 10118 10116 10115 10113 10111 10109 10107 10105 10103 10101 10100 10098 10097 10095 10093 10092 10091 10090 10089 10088 10088 10088 10088 10088 10088 10088 10089 10090 10090 10092 10093 10094 10095 10097 10098 10100 10102 10103 10105 10107 10108 10110 10112 10114 10116 10118 10120
10271 10265 10258 10252 10245 10238 10232 10226 10219 10214 10210 10207 10202 10197 10192 10188 10183 10179 10175 10170 10165 10162 10159 10156 10152 10149 10146 10143 10139 10135 10132 10129 10127 10126 10123 10120 10117 10113 10111 10109 10108 10106 10104 10102 10100 10098 10097 10095 10093 10092 10090 10088 10087 10085 10084 10083 10082 10081 10080 10080 10080 10080 10080 10080 10080 10080 10081 10082 10083 10084 10085 10087 10088 10089 10091 10092 10094 10095 10097 10099 10101 10102 10104 10106 10108 10110
10259 10253 10247 10240 10233 10227 10221 10215 10209 10203 10200 10195 10192 10187 10183 10179 10175 10171 10166 10160 10155 10152 10149 10147 10144 10141 10137 10133 10130 10126 10123 10121 10119 10118 10115 10113 10109 10106 10103 10101 10099 10098 10096 10094 10092 10090 10088 10087 10085 10083 10082 10080 10079 10077 10076 10075 10074 10073 10073 10072 10072 10072 10072 10072 10072 10072 10073 10073 10074 10075 10077 10078 10079 10080 10082 10083 10085 10087 10088 10090 10092 10093 10095 10097 10098 10100
10247 10241 10235 10228 10221 10215 10210 10205 10200 10194 10190 10185 10181 10177 10173 10170 10167 10163 10158 10153 10147 10143 10140 10137 10135 10133 10129 10125 10121 10117 10115 10112 10111 10109 10108 10105 10102 10098 10095 10093 10092 10090 10088 10087 10085 10083 10081 10079 10077 10075 10074 10073 10071 10070 10068 10067 10067 10066 10065 10065 10065 10064 10064 10064 10065 10065 10065 10066 10067 10067 10068 10069 10070 10072 10073 10075 10076 10078 10079 10081 10082 10084 10086 10088 10090 10092
10237 10230 10223 10217 10210 10204 10198 10194 10189 10185 10180 10176 10172 10168 10163 10160 10158 10155 10150 10145 10140 10135 10132 10128 10126 10124 10122 10117 10113 10109 10106 10104 10102 10101 10100 10098 10095 10092 10088 10085 10084 10083 10081 10079 10077 10075 10073 10072 10070 10068 10067 10065 10063 10062 10061 10060 10060 10059 10058 10058 10057 10057 10057 10057 10057 10057 10058 10058 10058 10060 10060 10062 10063 10064 10065 10067 10068 10070 10071 10072 10074 10075 10077 10078 10080 10082
10227 10220 10213 10207 10200 10195 10190 10185 10180 10175 10171 10167 10163 10159 10155 10152 10148 10145 10142 10137 10132 10128 10125 10121 10118 10115 10113 10110 10106 10102 10098 10096 10094 10093 10092 10090 10088 10084 10081 10078 10076 10075 10074 10072 10070 10068 10067 10065 10063 10062 10060 10058 10057 10055 10054 10053 10053 10052 10052 10051 10050 10050 10050 10050 10050 10050 10050 10051 10052 10052 10053 10054 10055 10056 10057 10058 10060 10062 10063 10064 10065 10067 10068 10070 10072 10073
10216 10210 10203 10197 10191 10185 10180 10176 10172 10167 10162 10158 10155 10151 10148 10145 10141 10137 10133 10129 10125 10121 10118 10114 10111 10108 10105 10102 10098 10095 10091 10088 10087 10086 10085 10083 10081 10078 10074 10071 10068 10068 10067 10065 10063 10062 10060 10058 10057 10055 10053 10052 10050 10049 10048 10047 10047 10045 10045 10044 10043 10043 10043 10042 10042 10043 10043 10043 10044 10045 10046 10047 10048 10048 10050 10051 10052 10054 10055 10056 10058 10059 10060 10062 10063 10064
10206 10200 10193 10187 10182 10176 10171 10167 10163 10158 10154 10150 10146 10143 10140 10137 10133 10130 10125 10122 10117 10113 10110 10107 10103 10100 10098 10095 10092 10088 10085 10082 10079 10078 10078 10077 10075 10072 10068 10064 10062 10060 10060 10059 10057 10055 10053 10052 10050 10048 10047 10046 10045 10043 10042 10041 10040 10039 10038 10037 10037 10036 10036 10035 10035 10036 10037 10037 10037 10038 10039 10040 10040 10042 10042 10043 10045 10046 10047 10048 10050 10051 10052 10053 10055 10056
10195 10189 10183 10178 10173 10167 10162 10158 10154 10150 10146 10142 10138 10135 10132 10128 10125 10122 10118 10114 10110 10107 10103 10100 10096 10093 10090 10088 10085 10082 10079 10075 10073 10072 10071 10070 10068 10065 10062 10058 10056 10054 10053 10053 10051 10049 10047 10045 10043 10042 10041 10040 10038 10038 10037 10036 10035 10033 10032 10031 10030 10030 10029 10029 10029 10029 10030 10030 10030 10031 10032 10033 10033 10035 10035 10037 10037 10038 10040 10041 10042 10043 10044 10045 10047 10048
10185 10179 10174 10169 10164 10158 10153 10149 10145 10142 10138 10134 10130 10127 10124 10121 10118 10114 10111 10107 10103 10100 10097 10093 10090 10086 10082 10080 10078 10076 10073 10070 10067 10065 10065 10063 10062 10060 10057 10053 10051 10049 10048 10047 10045 10043 10041 10038 10037 10036 10035 10033 10033 10032 10032 10030 10029 10028 10027 10025 10025 10023 10023 10023 10023 10023 10023 10023 10024 10025 10025 10026 10027 10027 10028 10029 10030 10032 10032 10033 10034 10035 10037 10037 10038 10040
10175 10170 10165 10160 10155 10150 10145 10140 10137 10133 10130 10127 10123 10119 10116 10113 10110 10107 10103 10100 10097 10093 10090 10087 10083 10080 10077 10073 10070 10068 10067 10064 10062 10059 10058 10057 10056 10054 10052 10048 10046 10044 10043 10042 10040 10037 10035 10033 10031 10030 10029 10028 10027 10027 10026 10025 10024 10023 10022 10020 10019 10018 10018 10018 10017 10017 10017 10018 10018 10018 10019 10020 10020 10021 10022 10022 10023 10024 10025 10026 10027 10028 10029 10030 10032 10032
10165 10160 10155 10151 10147 10142 10137 10133 10129 10126 10122 10118 10115 10112 10108 10105 10103 10100 10097 10094 10091 10088 10084 10081 10077 10074 10072 10068 10065 10062 10060 10058 10055 10053 10052 10051 10050 10048 10047 10043 10041 10039 10038 10037 10035 10032 10030 10028 10026 10025 10023 10023 10022 10021 10020 10019 10018 10017 10017 10015 10015 10014 10013 10013 10012 10012 10012 10012 10012 10012 10012 10013 10013 10014 10015 10016 10017 10017 10018 10019 10020 10021 10022 10023 10024 10025
10157 10152 10147 10143 10138 10134 10129 10125 10122 10118 10115 10112 10108 10105 10102 10098 10096 10093 10090 10087 10085 10082 10078 10075 10072 10069 10067 10063 10060 10057 10054 10052 10050 10047 10046 10045 10044 10043 10042 10038 10036 10034 10033 10032 10030 10028 10025 10023 10021 10020 10019 10018 10017 10016 10015 10014 10013 10012 10011 10010 10010 10009 10008 10008 10008 10007 10007 10007 10007 10007 10007 10007 10007 10008 10008 10009 10010 10011 10012 10012 10013 10015 10015 10017 10017 10018
10149 10143 10139 10135 10132 10127 10122 10118 10114 10111 10108 10105 10102 10098 10095 10092 10089 10086 10083 10081 10078 10075 10072 10070 10067 10064 10062 10059 10055 10052 10049 10047 10044 10042 10040 10040 10038 10038 10036 10033 10032 10030 10028 10027 10025 10023 10020 10018 10017 10016 10015 10013 10012 10012 10010 10009 10008 10007 10006 10005 10005 10004 10003 10003 10003 10002 10002 10002 10001 10001 10001 10001 10001 10002 10002 10003 10003 10005 10005 10007 10007 10008 10009 10010 10011 10012
10142 10137 10132 10128 10124 10120 10116 10112 10107 10104 10101 10098 10095 10092 10088 10086 10083 10080 10077 10074 10072 10069 10067 10064 10062 10060 10057 10055 10051 10048 10045 10042 10039 10037 10035 10034 10033 10032 10030 10028 10027 10025 10023 10022 10020 10018 10016 10014 10013 10012 10010 10010 10008 10007 10006 10005 10003 10002 10001 10000 10000 9999 9999 9998 9998 9997 9997 9997 9996 9996 9996 9996 9996 9996 9997 9997 9998 9998 9999 10000 10001 10002 10003 10003 10005 10005
10134 10129 10125 10120 10117 10113 10109 10105 10101 10098 10095 10092 10089 10086 10082 10080 10077 10074 10071 10068 10065 10063 10060 10058 10057 10055 10053 10050 10047 10044 10040 10037 10035 10032 10031 10029 10028 10027 10025 10023 10021 10020 10018 10017 10015 10013 10011 10009 10008 10007 10007 10005 10004 10003 10002 10000 9999 9998 9997 9995 9995 9995 9994 9993 9993 9993 9992 9992 9992 9991 9991 9991 9991 9991 9991 9992 9992 9993 9993 9995 9995 9996 9997 9998 9998 10000
10126 10122 10118 10114 10110 10106 10103 10099 10096 10092 10088 10085 10082 10079 10076 10073 10071 10068 10065 10062 10060 10057 10055 10053 10051 10049 10048 10046 10043 10040 10037 10033 10030 10028 10027 10025 10023 10022 10020 10018 10017 10015 10013 10013 10011 10009 10007 10005 10004 10003 10002 10001 10000 9998 9997 9996 9995 9993 9992 9991 9990 9990 9989 9989 9988 9988 9988 9987 9987 9987 9987 9987 9987 9987 9987 9987 9987 9988 9988 9989 9990 9991 9992 9992 9993 9994
10119 10115 10111 10107 10103 10100 10097 10093 10090 10086 10082 10079 10075 10073 10070 10068 10065 10063 10060 10057 10054 10052 10049 10047 10045 10044 10043 10042 10040 10037 10033 10030 10027 10025 10023 10022 10020 10018 10017 10014 10012 10010 10009 10008 10007 10005 10002 10000 10000 9999 9998 9997 9996 9995 9993 9992 9990 9989 9988 9987 9986 9985 9985 9985 9984 9983 9983 9983 9983 9982 9982 9982 9982 9982 9982 9982 9983 9983 9983 9984 9985 9985 9987 9987 9988 9989
10113 10108 10105 10101 10097 10093 10090 10087 10083 10080 10077 10073 10070 10067 10064 10062 10059 10057 10054 10052 10049 10047 10044 10042 10040 10038 10038 10037 10035 10033 10030 10027 10023 10022 10020 10018 10017 10014 10013 10010 10008 10007 10005 10004 10003 10001 9998 9997 9996 9995 9995 9993 9992 9990 9989 9988 9987 9985 9984 9983 9982 9982 9981 9980 9980 9979 9979 9978 9978 9978 9978 9978 9978 9978 9978 9978 9978 9978 9979 9980 9980 9981 9982 9982 9983 9984
10107 10103 10098 10095 10091 10087 10084 10081 10078 10075 10072 10068 10065 10062 10059 10057 10054 10052 10048 10047 10044 10042 10039 10037 10035 10033 10032 10032 10031 10029 10026 10023 10020 10017 10016 10015 10013 10011 10008 10007 10005 10002 10001 10000 9999 9997 9995 9993 9992 9992 9991 9990 9988 9987 9985 9984 9983 9982 9980 9980 9978 9978 9977 9977 9976 9975 9975 9975 9975 9974 9974 9974 9974 9973 9973 9974 9974 9974 9975 9975 9976 9977 9977 9978 9978 9979
10100 10097 10093 10088 10085 10082 10078 10075 10072 10069 10066 10063 10060 10057 10055 10052 10049 10047 10043 10041 10039 10037 10035 10032 10030 10028 10027 10027 10025 10024 10022 10019 10016 10013 10012 10011 10010 10007 10005 10003 10001 9999 9997 9996 9995 9993 9992 9989 9988 9987 9987 9986 9984 9983 9982 9980 9979 9978 9977 9976 9975 9974 9973 9973 9972 9972 9972 9971 9971 9970 9970 9970 9970 9970 9970 9970 9970 9970 9971 9971 9972 9972 9973 9973 9973 9974
10094 10090 10087 10083 10079 10076 10072 10070 10067 10064 10061 10058 10056 10053 10050 10048 10045 10042 10039 10037 10035 10032 10030 10028 10026 10024 10023 10022 10020 10020 10018 10015 10013 10010 10008 10007 10006 10004 10002 10000 9998 9996 9994 9992 9992 9990 9988 9987 9985 9983 9983 9982 9981 9979 9978 9977 9975 9975 9973 9973 9972 9971 9970 9970 9969 9968 9968 9968 9967 9967 9967 9967 9966 9966 9966 9967 9967 9967 9967 9968 9968 9968 9968 9968 9969 9970
10088 10084 10080 10077 10073 10070 10067 10064 10062 10058 10056 10054 10051 10048 10046 10043 10041 10038 10035 10033 10030 10028 10026 10023 10022 10020 10019 10018 10016 10015 10013 10012 10009 10007 10005 10004 10002 10000 9999 9997 9995 9993 9991 9989 9988 9987 9985 9983 9982 9980 9979 9978 9977 9976 9975 9973 9972 9971 9970 9969 9968 9968 9967 9967 9966 9965 9965 9964 9964 9963 9963 9963 9963 9963 9963 9963 9963 9963 9963 9964 9964 9964 9964 9965 9965 9965
10082 10078 10075 10072 10068 10065 10062 10059 10057 10054 10052 10049 10047 10045 10042 10039 10037 10034 10032 10029 10027 10025 10022 10020 10018 10017 10015 10014 10013 10011 10009 10007 10005 10003 10002 10001 9999 9997 9996 9994 9992 9990 9988 9987 9984 9982 9981 9980 9979 9977 9976 9975 9973 9973 9972 9970 9969 9968 9967 9966 9965 9965 9964 9963 9963 9962 9962 9961 9961 9960 9960 9960 9960 9960 9960 9960 9960 9960 9960 9960 9960 9960 9960 9961 9961 9962
10075 10072 10069 10066 10063 10060 10057 10054 10052 10049 10047 10045 10042 10040 10038 10035 10033 10030 10028 10025 10023 10021 10019 10017 10015 10013 10012 10011 10010 10008 10005 10003 10002 10000 9998 9997 9995 9993 9993 9991 9989 9987 9986 9984 9982 9980 9977 9976 9975 9974 9973 9972 9970 9970 9968 9967 9966 9965 9964 9963 9962 9962 9961 9960 9960 9959 9958 9958 9958 9958 9957 9957 9957 9957 9957 9957 9957 9957 9957 9957 9957 9957 9957 9957 9958 9958
10069 10066 10063 10060 10058 10055 10052 10050 10047 10045 10043 10040 10038 10036 10034 10032 10029 10027 10025 10022 10020 10018 10015 10013 10011 10010 10008 10007 10007 10005 10003 10001 9998 9997 9995 9994 9992 9990 9989 9988 9986 9984 9983 9981 9980 9977 9975 9973 9972 9971 9970 9968 9968 9967 9965 9964 9963 9962 9961 9960 9959 9958 9958 9958 9957 9957 9956 9956 9955 9955 9955 9955 9955 9955 9955 9954 9954 9954 9954 9954 9954 9954 9954 9954 9954 9955
10063 10061 10058 10055 10052 10050 10047 10045 10043 10040 10038 10036 10034 10032 10030 10028 10025 10023 10021 10018 10017 10015 10012 10010 10008 10007 10005 10003 10002 10001 10000 9998 9996 9994 9992 9991 9989 9987 9986 9984 9983 9982 9980 9978 9977 9975 9973 9971 9970 9968 9967 9965 9965 9963 9962 9962 9960 9959 9958 9957 9957 9956 9955 9955 9954 9954 9953 9953 9953 9953 9953 9952 9952 9952 9952 9952 9952 9951 9951 9951 9951 9951 9951 9951 9951 9952
10058 10055 10053 10050 10047 10045 10043 10040 10038 10036 10034 10032 10030 10028 10026 10024 10022 10020 10018 10015 10013 10012 10009 10007 10005 10003 10002 10000 9999 9997 9996 9995 9993 9991 9990 9988 9986 9984 9983 9981 9980 9978 9977 9975 9973 9972 9970 9968 9967 9965 9964 9963 9962 9961 9960 9958 9958 9957 9956 9955 9954 9953 9953 9952 9952 9952 9951 9951 9950 9950 9950 9950 9949 9949 9948 9948 9948 9948 9948 9948 9948 9948 9948 9948 9948 9948
10053 10051 10048 10045 10043 10040 10038 10036 10034 10032 10030 10028 10026 10024 10022 10020 10018 10016 10014 10012 10010 10008 10006 10004 10003 10001 9999 9998 9996 9994 9992 9991 9989 9988 9987 9985 9983 9982 9980 9978 9977 9975 9974 9972 9971 9970 9968 9966 9965 9963 9962 9960 9959 9958 9957 9956 9955 9954 9953 9953 9952 9951 9950 9950 9949 9949 9948 9948 9948 9947 9947 9947 9947 9946 9946 9945 9945 9945 9945 9945 9945 9944 9944 9945 9945 9945
10049 10046 10043 10040 10038 10036 10033 10032 10030 10028 10027 10025 10023 10021 10019 10017 10015 10013 10011 10009 10007 10005 10003 10002 10000 9998 9997 9995 9993 9992 9989 9988 9986 9985 9983 9982 9981 9979 9977 9976 9974 9973 9972 9970 9968 9967 9965 9964 9962 9961 9960 9958 9957 9956 9955 9954 9953 9952 9952 9950 9950 9949 9948 9948 9947 9947 9947 9946 9945 9945 9944 9944 9943 9943 9943 9942 9942 9942 9942 9942 9942 9941 9941 9941 9941 9942
10045 10042 10039 10036 10034 10032 10030 10028 10026 10024 10022 10020 10019 10017 10016 10014 10012 10010 10008 10006 10003 10002 10000 9998 9997 9995 9993 9992 9991 9989 9987 9985 9983 9982 9980 9979 9978 9977 9975 9973 9972 9970 9969 9968 9966 9965 9963 9962 9960 9959 9957 9956 9955 9953 9953 9952 9951 9950 9949 9948 9948 9947 9947 9946 9945 9945 9944 9943 9943 9942 9942 9941 9940 9940 9940 9939 9939 9938 9938 9938 9938 9938 9938 9938 9938 9938
10040 10038 10035 10032 10030 10028 10025 10023 10022 10020 10018 10017 10015 10014 10012 10011 10009 10007 10005 10003 10001 9999 9997 9995 9994 9992 9991 9990 9988 9987 9985 9983 9981 9980 9978 9977 9975 9974 9973 9971 9970 9968 9967 9965 9964 9963 9961 9960 9958 9957 9955 9954 9953 9952 9951 9950 9949 9948 9947 9947 9946 9945 9945 9944 9943 9943 9942 9942 9941 9940 9939 9938 9938 9937 9937 9937 9936 9936 9935 9935 9935 9935 9935 9935 9935 9935
10037 10033 10031 10028 10026 10024 10022 10020 10018 10016 10015 10013 10012 10010 10009 10007 10006 10004 10002 10000 9998 9996 9994 9993 9991 9990 9988 9987 9985 9983 9982 9980 9978 9977 9976 9974 9973 9972 9970 9969 9967 9966 9965 9963 9962 9960 9959 9957 9956 9955 9953 9952 9951 9950 9948 9948 9947 9947 9946 9945 9945 9944 9943 9943 9942 9941 9940 9940 9938 9938 9937 9937 9936 9935 9935 9934 9933 9933 9933 9933 9933 9932 9932 9932 9932 9932
10033 10030 10027 10025 10022 10020 10018 10016 10014 10013 10011 10010 10008 10007 10005 10004 10002 10001 9999 9997 9995 9993 9992 9990 9988 9987 9986 9985 9983 9981 9979 9978 9976 9975 9973 9972 9971 9970 9968 9967 9965 9964 9963 9961 9960 9958 9957 9955 9954 9953 9952 9950 9949 9948 9947 9946 9945 9945 9945 9944 9943 9942 9942 9941 9940 9939 9938 9938 9937 9936 9935 9934 9933 9933 9932 9932 9932 9931 9931 9930 9930 9930 9930 9930 9930 9929
10029 10027 10024 10022 10019 10017 10015 10013 10011 10009 10008 10006 10005 10003 10002 10000 9999 9997 9996 9994 9993 9991 9989 9988 9987 9985 9984 9982 9981 9979 9977 9975 9974 9973 9972 9970 9969 9967 9966 9965 9963 9962 9961 9959 9958 9957 9955 9954 9952 9951 9950 9948 9947 9947 9945 9945 9944 9943 9943 9942 9942 9941 9940 9939 9938 9937 9937 9936 9935 9934 9933 9933 9932 9931 9930 9930 9930 9929 9929 9928 9928 9928 9928 9927 9927 9927
10026 10023 10021 10018 10017 10014 10012 10010 10008 10007 10005 10003 10002 10000 9998 9997 9996 9994 9993 9992 9990 9988 9987 9985 9984 9983 9982 9980 9979 9977 9975 9973 9972 9970 9969 9968 9967 9965 9964 9963 9962 9960 9959 9957 9956 9955 9953 9952 9950 9949 9948 9947 9946 9945 9944 9943 9943 9942 9942 9941 9940 9939 9938 9937 9937 9936 9935 9934 9933 9932 9932 9931 9930 9930 9929 9928 9928 9927 9927 9927 9926 9926 9926 9925 9925 9925
10023 10020 10018 10016 10013 10012 10010 10008 10005 10003 10002 10000 9998 9997 9995 9994 9993 9991 9990 9988 9987 9985 9984 9983 9982 9980 9979 9978 9977 9975 9973 9972 9970 9968 9967 9966 9965 9963 9962 9961 9960 9958 9957 9956 9954 9953 9952 9950 9949 9947 9947 9945 9945 9943 9943 9942 9942 9941 9940 9939 9938 9938 9937 9935 9935 9934 9933 9933 9932 9931 9930 9930 9928 9928 9928 9927 9927 9926 9925 9925 9924 9923 9923 9923 9923 9923
10019 10017 10015 10013 10011 10009 10007 10005 10003 10001 9999 9997 9996 9994 9993 9991 9990 9988 9987 9985 9984 9983 9981 9980 9978 9978 9977 9976 9975 9973 9971 9970 9968 9967 9965 9964 9963 9962 9960 9959 9958 9957 9955 9954 9953 9952 9950 9948 9947 9946 9945 9944 9943 9942 9942 9941 9940 9940 9939 9938 9937 9936 9935 9934 9933 9933 9932 9931 9930 9930 9929 9928 9928 9927 9926 9925 9925 9924 9923 9923 9922 9922 9922 9921 9921 9921
10015 10013 10012 10010 10008 10006 10004 10002 10000 9998 9997 9995 9993 9992 9990 9988 9987 9986 9984 9983 9982 9980 9978 9977 9976 9975 9974 9973 9972 9971 9969 9968 9966 9965 9963 9962 9961 9960 9958 9957 9956 9955 9953 9952 9951 9950 9948 9947 9946 9945 9943 9943 9942 9941 9940 9940 9940 9938 9938 9937 9936 9935 9934 9933 9932 9932 9930 9930 9929 9928 9928 9927 9927 9926 9925 9924 9923 9923 9922 9921 9921 9920 9920 9919 9919 9919
10012 10010 10008 10007 10005 10003 10001 9999 9998 9996 9994 9992 9990 9989 9987 9986 9985 9983 9982 9980 9979 9977 9976 9975 9973 9973 9972 9971 9970 9968 9967 9966 9964 9963 9962 9960 9959 9958 9957 9955 9955 9953 9952 9951 9950 9948 9947 9946 9945 9943 9943 9942 9941 9940 9940 9939 9938 9937 9937 9935 9935 9933 9933 9932 9931 9930 9930 9929 9928 9927 9927 9926 9925 9924 9923 9923 9922 9921 9920 9920 9919 9918 9918 9918 9918 9917
10008 10007 10005 10003 10002 10000 9998 9997 9995 9993 9992 9990 9988 9987 9985 9983 9982 9980 9979 9978 9977 9975 9974 9973 9972 9970 9970 9968 9968 9967 9965 9963 9962 9961 9960 9958 9957 9956 9955 9954 9953 9952 9950 9950 9948 9947 9946 9945 9943 9942 9942 9941 9940 9939 9938 9938 9937 9937 9935 9934 9933 9932 9932 9931 9930 9929 9928 9928 9927 9927 9925 9925 9924 9923 9922 9921 9920 9920 9919 9918 9918 9917 9917 9917 9917 9917
10005 10003 10002 10000 9998 9997 9995 9993 9992 9990 9988 9987 9986 9984 9983 9981 9980 9978 9977 9975 9974 9973 9972 9970 9969 9968 9967 9967 9965 9964 9963 9962 9960 9959 9958 9957 9956 9955 9953 9953 9952 9950 9949 9948 9947 9946 9945 9943 9942 9942 9940 9940 9939 9938 9938 9937 9937 9935 9934 9933 9932 9932 9931 9930 9929 9928 9928 9927 9927 9926 9925 9924 9923 9923 9922 9920 9920 9918 9918 9917 9917 9917 9917 9917 9916 9916
10002 10000 9998 9997 9995 9993 9992 9990 9989 9987 9986 9985 9983 9982 9980 9978 9977 9976 9975 9973 9972 9970 9970 9968 9967 9966 9965 9965 9963 9962 9961 9960 9958 9958 9957 9955 9954 9953 9952 9952 9950 9949 9948 9947 9946 9945 9943 9943 9942 9940 9940 9939 9938 9937 9937 9936 9935 9935 9933 9933 9932 9931 9930 9929 9928 9928 9927 9926 9926 9925 9924 9923 9922 9922 9921 9920 9919 9918 9917 9917 9916 9916 9915 9915 9915 9915
9999 9997 9995 9994 9992 9990 9989 9988 9986 9985 9983 9982 9980 9979 9978 9977 9975 9973 9972 9971 9970 9968 9967 9966 9965 9964 9963 9962 9962 9960 9960 9958 9957 9956 9955 9953 9953 9952 9951 9950 9949 9948 9947 9946 9945 9943 9943 9942 9941 9940 9939 9938 9937 9937 9936 9935 9935 9934 9933 9932 9931 9930 9930 9928 9928 9927 9927 9926 9925 9924 9923 9922 9922 9921 9920 9919 9918 9917 9917 9916 9915 9915 9914 9914 9914 9913